EW8182 Weather Reports


time (UTC)temp
C
wind
direction
speed
KPH
gust
KPH
rain 1hr
cm
rain 24hr
cm
rain mn
cm
humidity
%
barometer
mb
20260903011115 27 244 1.6 3.2 0.00 0.00 0.00 78 1015.5
20260903010613 27 244 1.6 3.2 0.00 0.00 0.00 77 1015.5
20260903010119 27 244 0.0 3.2 0.00 0.00 0.00 77 1015.4
20260903010114 27 244 0.0 3.2 0.00 0.00 0.00 77 1015.4
20260903005118 28 244 0.0 3.2 0.00 0.00 0.00 75 1015.4
20260903005113 27 244 1.6 3.2 0.00 0.00 0.00 77 1015.4
20260903004719 28 244 0.0 0.0 0.00 0.00 0.00 75 1015.3
20260903003611 28 244 0.0 0.0 0.00 0.00 0.00 75 1015.3
20260903003111 28 244 0.0 0.0 0.00 0.00 0.00 74 1015.3
20260903002611 28 244 0.0 0.0 0.00 0.00 0.00 73 1015.2
20260903002111 28 244 0.0 1.6 0.00 0.00 0.00 73 1015.2
20260903001612 28 244 1.6 4.8 0.00 0.00 0.00 72 1015.2
20260903001112 29 244 1.6 4.8 0.00 0.00 0.00 71 1015.2
20260903000611 29 244 1.6 4.8 0.00 0.00 0.00 71 1015.3
20260903000111 29 244 3.2 4.8 0.00 0.00 0.00 70 1015.2
20260902235616 29 242 3.2 6.4 0.00 0.00 0.00 70 1015.2
20260902235612 29 242 3.2 4.8 0.00 0.00 0.00 70 1015.2
20260902234610 30 238 3.2 6.4 0.00 0.00 0.00 70 1015.2
20260902234109 30 244 3.2 6.4 0.00 0.00 0.00 70 1015.2
20260902233609 30 226 3.2 4.8 0.00 0.00 0.00 70 1015.1
20260902233115 30 238 4.8 8.0 0.00 0.00 0.00 69 1015.2
20260902233109 30 241 3.2 4.8 0.00 0.00 0.00 70 1015.1
20260902232609 30 242 4.8 8.0 0.00 0.00 0.00 69 1015.1
20260902231610 30 232 4.8 8.0 0.00 0.00 0.00 69 1015.2
20260902231109 30 242 4.8 8.0 0.00 0.00 0.00 68 1015.2
20260902230610 30 242 6.4 12.9 0.00 0.00 0.00 68 1015.2
20260902230108 30 236 6.4 12.9 0.00 0.00 0.00 69 1015.2
20260902225611 31 244 4.8 12.9 0.00 0.00 0.00 68 1015.2
20260902225607 30 236 4.8 12.9 0.00 0.00 0.00 68 1015.2
20260902224607 31 234 4.8 11.3 0.00 0.00 0.00 68 1015.3
20260902224113 31 240 4.8 11.3 0.00 0.00 0.00 66 1015.3
20260902224108 31 228 6.4 11.3 0.00 0.00 0.00 67 1015.3
20260902223107 31 217 4.8 11.3 0.00 0.00 0.00 65 1015.2
20260902222608 31 226 6.4 14.5 0.00 0.00 0.00 65 1015.3
20260902222108 31 227 6.4 14.5 0.00 0.00 0.00 66 1015.3
20260902221612 32 229 6.4 14.5 0.00 0.00 0.00 66 1015.3
20260902221607 32 213 6.4 14.5 0.00 0.00 0.00 64 1015.3
20260902221213 32 240 6.4 14.5 0.00 0.00 0.00 64 1015.4
20260902220111 32 237 4.8 9.7 0.00 0.00 0.00 64 1015.5
20260902220105 32 231 6.4 12.9 0.00 0.00 0.00 63 1015.4
20260902215605 32 225 4.8 11.3 0.00 0.00 0.00 64 1015.4
20260902215210 32 238 4.8 11.3 0.00 0.00 0.00 66 1015.5
20260902214605 32 236 4.8 9.7 0.00 0.00 0.00 65 1015.5
20260902213605 32 246 4.8 11.3 0.00 0.00 0.00 62 1015.5
20260902213105 32 213 6.4 11.3 0.00 0.00 0.00 67 1015.5
20260902212604 32 229 8.0 14.5 0.00 0.00 0.00 64 1015.5
20260902212109 32 244 8.0 14.5 0.00 0.00 0.00 63 1015.5
20260902212105 32 205 8.0 11.3 0.00 0.00 0.00 65 1015.7
20260902211103 32 225 8.0 14.5 0.00 0.00 0.00 66 1015.7
20260902210602 32 218 8.0 14.5 0.00 0.00 0.00 65 1015.7
20260902210103 32 237 8.0 14.5 0.00 0.00 0.00 61 1015.8
20260902205602 33 240 4.8 14.5 0.00 0.00 0.00 64 1015.8
20260902205103 33 215 3.2 11.3 0.00 0.00 0.00 63 1015.9
20260902204602 33 217 6.4 12.9 0.00 0.00 0.00 63 1015.8
20260902204102 33 236 6.4 12.9 0.00 0.00 0.00 62 1015.8
20260902203603 33 224 3.2 9.7 0.00 0.00 0.00 61 1015.8
20260902203103 33 218 4.8 12.9 0.00 0.00 0.00 60 1015.9
20260902202603 33 250 6.4 12.9 0.00 0.00 0.00 63 1016.0
20260902202100 33 231 4.8 12.9 0.00 0.00 0.00 60 1016.0
20260902201601 33 236 3.2 12.9 0.00 0.00 0.00 60 1016.0
20260902201211 33 225 6.4 14.5 0.00 0.00 0.00 60 1016.1
20260902201105 33 242 3.2 9.7 0.00 0.00 0.00 61 1016.0
20260902201101 33 241 3.2 11.3 0.00 0.00 0.00 59 1016.0
20260902200705 32 240 4.8 11.3 0.00 0.00 0.00 59 1016.0
20260902195100 33 232 6.4 14.5 0.00 0.00 0.00 61 1016.2
20260902194600 33 238 6.4 14.5 0.00 0.00 0.00 64 1016.2
20260902194101 32 219 4.8 11.3 0.00 0.00 0.00 66 1016.3
20260902193600 32 205 6.4 16.1 0.00 0.00 0.00 65 1016.3
20260902193101 32 238 8.0 16.1 0.00 0.00 0.00 59 1016.4
20260902192600 32 238 8.0 16.1 0.00 0.00 0.00 60 1016.5
20260902192101 32 211 8.0 17.7 0.00 0.00 0.00 63 1016.5
20260902191601 32 257 6.4 17.7 0.00 0.00 0.00 62 1016.5
20260902191100 32 207 6.4 17.7 0.00 0.00 0.00 63 1016.6
20260902190600 32 236 4.8 16.1 0.00 0.00 0.00 64 1016.7
20260902190059 32 225 4.8 14.5 0.00 0.00 0.00 60 1016.7
20260902185603 32 240 8.0 14.5 0.00 0.00 0.00 66 1016.9
20260902185559 32 209 6.4 14.5 0.00 0.00 0.00 62 1016.8
20260902185055 32 232 8.0 12.9 0.00 0.00 0.00 68 1016.8
20260902184555 32 226 8.0 16.1 0.00 0.00 0.00 66 1016.9
20260902184055 32 243 8.0 16.1 0.00 0.00 0.00 66 1016.9
20260902183054 32 239 6.4 14.5 0.00 0.00 0.00 64 1017.0
20260902182554 32 239 4.8 11.3 0.00 0.00 0.00 65 1017.0
20260902182054 32 216 6.4 16.1 0.00 0.00 0.00 67 1017.0
20260902181600 32 246 3.2 12.9 0.00 0.00 0.00 65 1017.0
20260902181556 31 244 6.4 16.1 0.00 0.00 0.00 66 1017.0
20260902180554 31 239 4.8 16.1 0.00 0.00 0.00 67 1017.1
20260902180055 31 242 6.4 16.1 0.00 0.00 0.00 64 1017.2
20260902175555 31 220 4.8 12.9 0.00 0.00 0.00 63 1017.2
20260902175058 31 228 6.4 12.9 0.00 0.00 0.00 65 1017.3
20260902175054 31 221 4.8 12.9 0.00 0.00 0.00 69 1017.2
20260902174052 32 241 6.4 12.9 0.00 0.00 0.00 70 1017.4
20260902173552 32 236 4.8 12.9 0.00 0.00 0.00 67 1017.5
20260902173052 32 213 3.2 11.3 0.00 0.00 0.00 69 1017.5
20260902172553 32 236 3.2 9.7 0.00 0.00 0.00 68 1017.5
20260902172052 32 219 4.8 16.1 0.00 0.00 0.00 67 1017.6
20260902171552 31 229 8.0 16.1 0.00 0.00 0.00 71 1017.7
20260902171053 31 254 9.7 19.3 0.00 0.00 0.00 69 1017.7
20260902170551 31 223 9.7 19.3 0.00 0.00 0.00 68 1017.7
20260902170052 31 196 8.0 14.5 0.00 0.00 0.00 67 1017.6
20260902165550 31 244 6.4 14.5 0.00 0.00 0.00 70 1017.7
20260902165049 31 231 6.4 11.3 0.00 0.00 0.00 69 1017.7
20260902164549 31 238 6.4 12.9 0.00 0.00 0.00 70 1017.8
20260902164048 31 240 4.8 12.9 0.00 0.00 0.00 71 1017.7
20260902163548 31 238 4.8 12.9 0.00 0.00 0.00 72 1017.8
20260902163052 31 229 8.0 12.9 0.00 0.00 0.00 71 1017.9
20260902163048 31 244 6.4 12.9 0.00 0.00 0.00 71 1017.9
20260902162048 31 215 8.0 12.9 0.00 0.00 0.00 73 1017.9
20260902161548 30 205 6.4 12.9 0.00 0.00 0.00 74 1017.8
20260902161048 30 210 8.0 12.9 0.00 0.00 0.00 73 1017.9
20260902160548 30 214 6.4 14.5 0.00 0.00 0.00 73 1017.9
20260902160048 30 225 4.8 14.5 0.00 0.00 0.00 73 1018.0
20260902155555 30 236 4.8 14.5 0.00 0.00 0.00 75 1018.0
20260902155548 30 232 6.4 11.3 0.00 0.00 0.00 74 1018.0
20260902155048 30 219 6.4 14.5 0.00 0.00 0.00 73 1018.0
20260902154548 30 235 4.8 14.5 0.00 0.00 0.00 71 1018.0
20260902153549 30 238 4.8 14.5 0.00 0.00 0.00 72 1018.1
20260902153047 30 219 4.8 11.3 0.00 0.00 0.00 75 1018.1
20260902152546 30 234 6.4 11.3 0.00 0.00 0.00 75 1018.1
20260902152050 30 176 6.4 12.9 0.00 0.00 0.00 74 1018.1
20260902151546 30 229 6.4 12.9 0.00 0.00 0.00 76 1018.1
20260902151045 29 230 8.0 12.9 0.00 0.00 0.00 76 1018.1
20260902150546 29 210 6.4 11.3 0.00 0.00 0.00 77 1018.2
20260902150050 29 219 3.2 9.7 0.00 0.00 0.00 77 1018.2
20260902150046 29 221 4.8 11.3 0.00 0.00 0.00 76 1018.2
20260902145049 29 240 4.8 11.3 0.00 0.00 0.00 77 1018.2
20260902145044 29 215 4.8 12.9 0.00 0.00 0.00 77 1018.2
20260902144648 29 225 4.8 12.9 0.00 0.00 0.00 77 1018.2
20260902143544 29 218 3.2 8.0 0.00 0.00 0.00 77 1018.2
20260902143044 28 241 4.8 11.3 0.00 0.00 0.00 79 1018.1
20260902142544 28 240 6.4 12.9 0.00 0.00 0.00 77 1018.1
20260902142044 28 214 6.4 12.9 0.00 0.00 0.00 78 1018.1
20260902141544 28 232 6.4 11.3 0.00 0.00 0.00 79 1018.2
20260902141043 28 253 4.8 11.3 0.00 0.00 0.00 78 1018.1
20260902140544 28 230 4.8 9.7 0.00 0.00 0.00 81 1018.0
20260902140043 27 219 6.4 12.9 0.00 0.00 0.00 80 1018.1
20260902135544 27 235 4.8 12.9 0.00 0.00 0.00 80 1018.0
20260902135044 27 210 1.6 8.0 0.00 0.00 0.00 82 1018.1
20260902134544 27 234 1.6 6.4 0.00 0.00 0.00 83 1018.1
20260902134043 27 208 3.2 6.4 0.00 0.00 0.00 84 1018.1
20260902133544 26 238 3.2 8.0 0.00 0.00 0.00 83 1018.1
20260902133043 26 244 4.8 11.3 0.00 0.00 0.00 83 1018.1
20260902132543 26 222 4.8 11.3 0.00 0.00 0.00 83 1018.0
20260902132044 26 247 4.8 11.3 0.00 0.00 0.00 84 1018.0
20260902131543 26 242 3.2 8.0 0.00 0.00 0.00 85 1018.1
20260902131044 26 230 1.6 6.4 0.00 0.00 0.00 86 1018.1
20260902130543 26 244 1.6 4.8 0.00 0.00 0.00 87 1018.2
20260902130045 25 239 3.2 4.8 0.00 0.00 0.00 87 1018.1
20260902125544 25 221 3.2 4.8 0.00 0.00 0.00 88 1018.2
20260902125044 25 224 3.2 6.4 0.00 0.00 0.00 88 1018.2
20260902124543 25 229 3.2 6.4 0.00 0.00 0.00 89 1018.1
20260902124044 24 231 0.0 4.8 0.00 0.00 0.00 89 1018.1
20260902123543 24 233 0.0 0.0 0.00 0.00 0.00 90 1018.0
20260902123049 23 220 0.0 0.0 0.00 0.00 0.00 90 1017.9
20260902123045 24 219 0.0 0.0 0.00 0.00 0.00 90 1018.0
20260902122043 23 212 0.0 0.0 0.00 0.00 0.00 90 1017.9
20260902121543 23 212 0.0 0.0 0.00 0.00 0.00 90 1017.9
20260902121041 23 212 0.0 0.0 0.00 0.00 0.00 91 1017.8
20260902120541 23 212 0.0 0.0 0.00 0.00 0.00 91 1017.8
20260902120041 23 211 0.0 0.0 0.00 0.00 0.00 91 1017.7
20260902115542 22 212 0.0 0.0 0.00 0.00 0.00 92 1017.7
20260902115041 22 212 0.0 0.0 0.00 0.00 0.00 92 1017.7
20260902114541 22 211 0.0 0.0 0.00 0.00 0.00 92 1017.6
20260902114042 22 212 0.0 0.0 0.00 0.00 0.00 92 1017.5
20260902114038 22 212 0.0 0.0 0.00 0.00 0.00 91 1017.4
20260902113037 22 212 0.0 0.0 0.00 0.00 0.00 91 1017.4
20260902112537 22 212 0.0 0.0 0.00 0.00 0.00 91 1017.3
20260902112037 22 212 0.0 0.0 0.00 0.00 0.00 91 1017.3
20260902111538 22 211 0.0 0.0 0.00 0.00 0.00 91 1017.3
20260902111039 22 212 0.0 0.0 0.00 0.00 0.00 91 1017.3
20260902111035 22 212 0.0 0.0 0.00 0.00 0.00 91 1017.3
20260902110642 22 211 0.0 0.0 0.00 0.00 0.00 91 1017.3
20260902105535 22 212 0.0 0.0 0.00 0.00 0.00 91 1017.2
20260902105041 22 236 0.0 0.0 0.00 0.00 0.00 92 1017.4
20260902105037 22 212 0.0 0.0 0.00 0.00 0.00 92 1017.3
20260902104035 22 236 0.0 0.0 0.00 0.00 0.00 92 1017.4
20260902103535 22 236 0.0 0.0 0.00 0.00 0.00 92 1017.4
20260902103036 22 236 0.0 0.0 0.00 0.00 0.00 92 1017.3
20260902102536 22 236 0.0 0.0 0.00 0.00 0.00 92 1017.3
20260902102033 22 236 0.0 0.0 0.00 0.00 0.00 92 1017.3
20260902101534 22 236 0.0 0.0 0.00 0.00 0.00 92 1017.1
20260902101034 22 236 0.0 0.0 0.00 0.00 0.00 91 1017.2
20260902100533 22 236 0.0 0.0 0.00 0.00 0.00 91 1017.2
20260902100033 22 236 0.0 0.0 0.00 0.00 0.00 91 1017.1
20260902095538 22 236 0.0 0.0 0.00 0.00 0.00 91 1017.2
20260902095534 22 236 0.0 0.0 0.00 0.00 0.00 91 1017.1
20260902094538 22 236 0.0 0.0 0.00 0.00 0.00 91 1017.2
20260902094534 22 236 0.0 0.0 0.00 0.00 0.00 91 1017.1
20260902094032 22 236 0.0 0.0 0.00 0.00 0.00 91 1017.1
20260902093032 22 236 0.0 0.0 0.00 0.00 0.00 91 1017.1
20260902092532 22 236 0.0 0.0 0.00 0.00 0.00 91 1017.0
20260902092036 22 236 0.0 0.0 0.00 0.00 0.00 91 1017.0
20260902092032 22 236 0.0 0.0 0.00 0.00 0.00 91 1017.0
20260902091531 22 236 0.0 0.0 0.00 0.00 0.00 92 1017.1
20260902090531 22 236 0.0 0.0 0.00 0.00 0.00 91 1017.0
20260902090036 22 236 0.0 0.0 0.00 0.00 0.00 91 1016.9
20260902085531 22 236 0.0 0.0 0.00 0.00 0.00 91 1016.9
20260902085035 22 236 0.0 0.0 0.00 0.00 0.00 91 1016.8
20260902085031 22 236 0.0 0.0 0.00 0.00 0.00 91 1016.9
20260902084029 22 236 0.0 0.0 0.00 0.00 0.00 91 1016.8
20260902083528 22 236 0.0 0.0 0.00 0.00 0.00 91 1016.7
20260902083029 22 236 0.0 0.0 0.00 0.00 0.00 91 1016.7
20260902082531 22 236 0.0 0.0 0.00 0.00 0.00 91 1016.7
20260902082032 22 236 0.0 0.0 0.00 0.00 0.00 91 1016.7
20260902082028 22 236 0.0 0.0 0.00 0.00 0.00 91 1016.6
20260902081029 22 236 0.0 0.0 0.00 0.00 0.00 91 1016.6
20260902080526 22 236 0.0 0.0 0.00 0.00 0.00 91 1016.6
20260902080027 22 236 0.0 0.0 0.00 0.00 0.00 91 1016.6
20260902075531 22 236 0.0 0.0 0.00 0.00 0.00 91 1016.5
20260902075527 22 236 0.0 0.0 0.00 0.00 0.00 91 1016.5
20260902074527 22 236 0.0 0.0 0.00 0.00 0.00 91 1016.5
20260902074026 22 236 0.0 0.0 0.00 0.00 0.00 91 1016.5
20260902073527 22 236 0.0 0.0 0.00 0.00 0.00 90 1016.5
20260902073027 22 236 0.0 0.0 0.00 0.00 0.00 90 1016.5
20260902072527 22 236 0.0 0.0 0.00 0.00 0.00 90 1016.5
20260902072027 22 236 0.0 0.0 0.00 0.00 0.00 90 1016.5
20260902071526 22 236 0.0 0.0 0.00 0.00 0.00 90 1016.5
20260902071027 23 236 0.0 0.0 0.00 0.00 0.00 90 1016.5
20260902070528 23 236 0.0 0.0 0.00 0.00 0.00 90 1016.5
20260902070027 23 236 0.0 0.0 0.00 0.00 0.00 90 1016.5
20260902065530 23 236 0.0 0.0 0.00 0.00 0.00 90 1016.6
20260902065526 23 236 0.0 0.0 0.00 0.00 0.00 90 1016.6
20260902064527 23 236 0.0 0.0 0.00 0.00 0.00 90 1016.5
20260902064031 23 236 0.0 0.0 0.00 0.00 0.00 90 1016.5
20260902064026 23 236 0.0 0.0 0.00 0.00 0.00 90 1016.5
20260902063631 23 236 0.0 0.0 0.00 0.00 0.00 90 1016.6
20260902063024 23 236 0.0 0.0 0.00 0.00 0.00 90 1016.5
20260902062025 23 236 0.0 0.0 0.00 0.00 0.00 90 1016.5
20260902061524 23 236 0.0 0.0 0.00 0.00 0.00 90 1016.5
20260902061022 23 236 0.0 0.0 0.00 0.00 0.00 89 1016.5
20260902060527 23 236 0.0 0.0 0.00 0.00 0.00 89 1016.5
20260902060523 23 236 0.0 0.0 0.00 0.00 0.00 89 1016.5
20260902055522 23 236 0.0 0.0 0.00 0.00 0.00 89 1016.5
20260902055020 23 236 0.0 0.0 0.00 0.00 0.00 89 1016.6
20260902054520 23 236 0.0 0.0 0.00 0.00 0.00 89 1016.6
20260902054021 23 236 0.0 0.0 0.00 0.00 0.00 89 1016.6
20260902053520 23 236 0.0 0.0 0.00 0.00 0.00 89 1016.7
20260902053021 23 236 0.0 0.0 0.00 0.00 0.00 89 1016.6
20260902052521 23 236 0.0 0.0 0.00 0.00 0.00 89 1016.6
20260902052020 23 236 0.0 0.0 0.00 0.00 0.00 88 1016.6
20260902051519 23 236 0.0 0.0 0.00 0.00 0.00 88 1016.6
20260902051018 23 236 0.0 0.0 0.00 0.00 0.00 88 1016.6
20260902050522 23 236 0.0 0.0 0.00 0.00 0.00 87 1016.6
20260902050518 23 236 0.0 0.0 0.00 0.00 0.00 88 1016.6
20260902045518 23 236 0.0 0.0 0.00 0.00 0.00 87 1016.5
20260902045018 23 236 0.0 0.0 0.00 0.00 0.00 87 1016.6
20260902044517 23 236 0.0 0.0 0.00 0.00 0.00 87 1016.7
20260902044023 23 236 0.0 0.0 0.00 0.00 0.00 87 1016.6
20260902044019 23 236 0.0 0.0 0.00 0.00 0.00 87 1016.6
20260902043018 23 236 0.0 0.0 0.00 0.00 0.00 86 1016.6
20260902042517 24 236 0.0 0.0 0.00 0.00 0.00 86 1016.6
20260902042017 24 236 0.0 0.0 0.00 0.00 0.00 86 1016.7
20260902041516 24 236 0.0 0.0 0.00 0.00 0.00 86 1016.7
20260902041016 24 236 0.0 0.0 0.00 0.00 0.00 85 1016.7
20260902040515 24 236 0.0 0.0 0.00 0.00 0.00 85 1016.6
20260902040016 24 236 0.0 0.0 0.00 0.00 0.00 85 1016.7
20260902035516 24 236 0.0 0.0 0.00 0.00 0.00 86 1016.7
20260902035020 24 236 0.0 0.0 0.00 0.00 0.00 86 1016.7
20260902035015 24 236 0.0 0.0 0.00 0.00 0.00 86 1016.7
20260902034016 24 236 0.0 0.0 0.00 0.00 0.00 85 1016.7
20260902033516 24 236 0.0 0.0 0.00 0.00 0.00 85 1016.7
20260902033017 24 236 0.0 0.0 0.00 0.00 0.00 84 1016.7
20260902033013 24 236 0.0 0.0 0.00 0.00 0.00 84 1016.7
20260902032011 25 236 0.0 0.0 0.00 0.00 0.00 83 1016.6
20260902031516 25 236 0.0 0.0 0.00 0.00 0.00 82 1016.7
20260902031511 25 236 0.0 0.0 0.00 0.00 0.00 83 1016.6
20260902030512 25 236 0.0 0.0 0.00 0.00 0.00 81 1016.7
20260902030012 25 236 0.0 0.0 0.00 0.00 0.00 80 1016.7
20260902025512 25 236 0.0 0.0 0.00 0.00 0.00 80 1016.7
20260902025012 26 236 0.0 0.0 0.00 0.00 0.00 79 1016.7
20260902024512 26 236 0.0 0.0 0.00 0.00 0.00 79 1016.6
20260902024016 26 236 0.0 0.0 0.00 0.00 0.00 78 1016.6
20260902024011 26 236 0.0 0.0 0.00 0.00 0.00 78 1016.6
20260902023512 26 236 0.0 0.0 0.00 0.00 0.00 78 1016.6
20260902022512 26 236 0.0 0.0 0.00 0.00 0.00 78 1016.5
20260902022018 26 236 0.0 0.0 0.00 0.00 0.00 75 1016.5
20260902022012 26 236 0.0 0.0 0.00 0.00 0.00 78 1016.6
20260902021512 26 236 0.0 0.0 0.00 0.00 0.00 77 1016.5
20260902020511 27 236 0.0 0.0 0.00 0.00 0.00 74 1016.5
20260902020012 27 236 0.0 0.0 0.00 0.00 0.00 73 1016.4
20260902015508 27 236 0.0 0.0 0.00 0.00 0.00 73 1016.4
20260902015007 27 236 0.0 0.0 0.00 0.00 0.00 72 1016.4
20260902014507 27 236 0.0 0.0 0.00 0.00 0.00 72 1016.3
20260902014007 27 236 0.0 0.0 0.00 0.00 0.00 72 1016.4
20260902013508 27 236 0.0 0.0 0.00 0.00 0.00 72 1016.4
20260902013008 27 236 0.0 0.0 0.00 0.00 0.00 73 1016.3
20260902012507 27 236 0.0 0.0 0.00 0.00 0.00 74 1016.3
20260902012007 27 236 0.0 0.0 0.00 0.00 0.00 75 1016.1